| time (UTC) | temp F | wind direction | speed MPH | gust MPH | rain 1hr in | rain 24hr in | rain mn in | humidity % | barometer mb |
| 20260502163047 | 70 | 337 | 1.0 | 7.0 | 0.00 | 1.40 | 0.01 | 55 | 1020.8 |
| 20260502161536 | 69 | 324 | 1.0 | 7.0 | 0.00 | 1.40 | 0.01 | 57 | 1020.8 |
| 20260502160136 | 68 | 274 | 2.0 | 9.0 | 0.00 | 1.40 | 0.01 | 60 | 1020.8 |
| 20260502151557 | 66 | 290 | 1.0 | 5.0 | 0.00 | 1.43 | 0.01 | 66 | 1020.5 |
| 20260502150135 | 65 | 26 | 3.0 | 6.0 | 0.00 | 1.43 | 0.01 | 67 | 1020.5 |
| 20260502123100 | 53 | 325 | 0.0 | 4.0 | 0.00 | 1.63 | 0.00 | 88 | 1019.0 |
| 20260502121601 | 53 | 327 | 2.0 | 3.0 | 0.00 | 1.63 | 0.00 | 87 | 1018.8 |
| 20260502114556 | 53 | 284 | 0.0 | 1.0 | 0.00 | 1.65 | 0.00 | 87 | 1018.5 |
| 20260502113055 | 53 | 336 | 0.0 | 3.0 | 0.00 | 1.65 | 0.00 | 86 | 1018.3 |
| 20260502111552 | 53 | 299 | 0.0 | 4.0 | 0.00 | 1.65 | 0.00 | 86 | 1018.1 |
| 20260502110059 | 53 | 301 | 0.0 | 3.0 | 0.00 | 1.65 | 0.00 | 86 | 1017.9 |
| 20260502104549 | 53 | 299 | 1.0 | 3.0 | 0.00 | 1.68 | 0.00 | 86 | 1017.9 |
| 20260502103051 | 54 | 321 | 0.0 | 3.0 | 0.00 | 1.68 | 0.00 | 85 | 1017.8 |
| 20260502101556 | 54 | 325 | 1.0 | 4.0 | 0.00 | 1.68 | 0.00 | 85 | 1017.5 |
| 20260502071529 | 55 | 272 | 0.0 | 2.0 | 0.00 | 2.27 | 0.00 | 87 | 1016.2 |
| 20260502070041 | 55 | 298 | 1.0 | 3.0 | 0.00 | 2.27 | 0.00 | 87 | 1016.3 |
| 20260502064527 | 55 | 302 | 0.0 | 3.0 | 0.00 | 2.27 | 0.00 | 87 | 1016.3 |
| 20260502063034 | 56 | 310 | 0.0 | 4.0 | 0.00 | 2.27 | 0.00 | 87 | 1016.0 |
| 20260502061523 | 56 | 279 | 0.0 | 3.0 | 0.00 | 2.27 | 0.00 | 87 | 1015.9 |
| 20260502060122 | 56 | 355 | 0.0 | 3.0 | 0.00 | 2.27 | 0.00 | 87 | 1015.8 |
| 20260502054531 | 56 | 333 | 0.0 | 5.0 | 0.00 | 2.35 | 0.00 | 88 | 1015.8 |
| 20260502053019 | 56 | 304 | 1.0 | 5.0 | 0.00 | 2.35 | 0.00 | 88 | 1015.8 |
| 20260502051517 | 56 | 339 | 2.0 | 4.0 | 0.00 | 2.35 | 0.00 | 88 | 1015.7 |
| 20260502050033 | 56 | 311 | 1.0 | 5.0 | 0.00 | 2.52 | 2.35 | 89 | 1015.5 |
| 20260502044515 | 56 | 325 | 0.0 | 5.0 | 0.00 | 2.52 | 2.35 | 89 | 1015.4 |
| 20260502043016 | 56 | 317 | 1.0 | 5.0 | 0.00 | 2.52 | 2.35 | 89 | 1015.6 |
| 20260502041513 | 56 | 306 | 1.0 | 7.0 | 0.00 | 2.52 | 2.35 | 89 | 1015.6 |
| 20260502040013 | 56 | 350 | 1.0 | 4.0 | 0.00 | 2.52 | 2.35 | 89 | 1015.5 |
| 20260502034517 | 56 | 321 | 1.0 | 5.0 | 0.00 | 2.52 | 2.35 | 89 | 1015.6 |
| 20260502033008 | 56 | 298 | 1.0 | 4.0 | 0.01 | 2.52 | 2.35 | 89 | 1015.2 |
| 20260502031507 | 56 | 256 | 2.0 | 9.0 | 0.02 | 2.52 | 2.35 | 89 | 1015.0 |
| 20260502030043 | 56 | 346 | 2.0 | 8.0 | 0.03 | 2.52 | 2.35 | 89 | 1014.6 |
| 20260502024546 | 57 | 285 | 1.0 | 3.0 | 0.05 | 2.52 | 2.35 | 90 | 1014.1 |
| 20260502023057 | 57 | 283 | 1.0 | 4.0 | 0.05 | 2.52 | 2.34 | 89 | 1013.7 |
| 20260502021536 | 57 | 287 | 1.0 | 6.0 | 0.06 | 2.50 | 2.33 | 89 | 1013.5 |
| 20260502020134 | 58 | 338 | 1.0 | 4.0 | 0.07 | 2.50 | 2.31 | 90 | 1013.6 |
| 20260502014537 | 58 | 319 | 1.0 | 4.0 | 0.06 | 2.47 | 2.29 | 90 | 1013.5 |
| 20260502013034 | 58 | 346 | 2.0 | 6.0 | 0.09 | 2.47 | 2.29 | 89 | 1013.3 |
| 20260502011534 | 59 | 279 | 0.0 | 5.0 | 0.10 | 2.45 | 2.27 | 90 | 1012.6 |
| 20260502010136 | 59 | 304 | 1.0 | 5.0 | 0.12 | 2.43 | 2.25 | 90 | 1012.7 |
| 20260502004535 | 59 | 319 | 1.0 | 6.0 | 0.14 | 2.41 | 2.23 | 90 | 1013.5 |
| 20260502003033 | 59 | 260 | 0.0 | 9.0 | 0.13 | 2.38 | 2.20 | 89 | 1011.4 |
| 20260502001533 | 59 | 311 | 2.0 | 5.0 | 0.11 | 2.35 | 2.17 | 89 | 1011.8 |
| 20260502000133 | 59 | 305 | 0.0 | 4.0 | 0.11 | 2.31 | 2.13 | 89 | 1012.0 |
| 20260501234537 | 59 | 305 | 0.0 | 4.0 | 0.13 | 2.27 | 2.09 | 89 | 1012.8 |
| 20260501233034 | 60 | 175 | 1.0 | 3.0 | 0.11 | 2.25 | 2.06 | 89 | 1011.1 |
| 20260501231533 | 60 | 78 | 1.0 | 5.0 | 0.10 | 2.24 | 2.06 | 89 | 1010.5 |
| 20260501230133 | 60 | 289 | 0.0 | 4.0 | 0.05 | 2.19 | 2.00 | 89 | 1010.7 |
| 20260501224556 | 61 | 180 | 1.0 | 6.0 | 0.01 | 2.14 | 1.96 | 90 | 1010.3 |
| 20260501223031 | 61 | 72 | 2.0 | 6.0 | 0.01 | 2.14 | 1.96 | 90 | 1010.0 |
| 20260501221528 | 61 | 83 | 0.0 | 4.0 | 0.05 | 2.14 | 1.96 | 90 | 1009.8 |
| 20260501220129 | 61 | 281 | 1.0 | 3.0 | 0.06 | 2.14 | 1.96 | 90 | 1010.0 |
| 20260501214554 | 62 | 347 | 0.0 | 2.0 | 0.06 | 2.13 | 1.95 | 90 | 1010.5 |
| 20260501213053 | 62 | 323 | 1.0 | 4.0 | 0.14 | 2.13 | 1.95 | 91 | 1010.8 |
| 20260501211549 | 62 | 319 | 1.0 | 5.0 | 0.16 | 2.09 | 1.91 | 90 | 1010.7 |
| 20260501210149 | 62 | 314 | 0.0 | 6.0 | 0.20 | 2.08 | 1.90 | 90 | 1009.9 |
| 20260501204548 | 62 | 302 | 1.0 | 5.0 | 0.20 | 2.06 | 1.89 | 90 | 1009.5 |
| 20260501203047 | 62 | 267 | 0.0 | 4.0 | 0.16 | 1.99 | 1.81 | 90 | 1009.9 |
| 20260501201547 | 62 | 263 | 0.0 | 4.0 | 0.13 | 1.93 | 1.75 | 91 | 1009.5 |
| 20260501200146 | 62 | 291 | 2.0 | 6.0 | 0.13 | 1.88 | 1.70 | 90 | 1009.1 |
| 20260501194556 | 63 | 322 | 1.0 | 3.0 | 0.14 | 1.87 | 1.69 | 90 | 1008.9 |
| 20260501193150 | 63 | 340 | 0.0 | 4.0 | 0.12 | 1.83 | 1.65 | 90 | 1008.9 |
| 20260501191551 | 63 | 157 | 0.0 | 4.0 | 0.25 | 1.79 | 1.61 | 90 | 1009.4 |
| 20260501190146 | 63 | 92 | 0.0 | 4.0 | 0.22 | 1.74 | 1.56 | 90 | 1009.6 |
| 20260501184548 | 62 | 109 | 0.0 | 2.0 | 0.43 | 1.73 | 1.55 | 90 | 1009.2 |
| 20260501183048 | 62 | 94 | 1.0 | 3.0 | 0.46 | 1.71 | 1.53 | 90 | 1008.6 |
| 20260501181546 | 62 | 177 | 1.0 | 6.0 | 0.30 | 1.54 | 1.36 | 90 | 1009.9 |
| 20260501180146 | 63 | 108 | 0.0 | 4.0 | 0.28 | 1.52 | 1.34 | 90 | 1008.6 |
| 20260501174547 | 63 | 223 | 0.0 | 5.0 | 0.06 | 1.30 | 1.12 | 90 | 1009.8 |
| 20260501173111 | 63 | 281 | 1.0 | 4.0 | 0.03 | 1.25 | 1.07 | 90 | 1009.9 |
| 20260501171545 | 63 | 188 | 1.0 | 4.0 | 0.05 | 1.24 | 1.06 | 90 | 1010.3 |
| 20260501170144 | 63 | 205 | 1.0 | 5.0 | 0.10 | 1.24 | 1.06 | 90 | 1010.4 |
| 20260501164601 | 63 | 335 | 1.0 | 4.0 | 0.12 | 1.24 | 1.06 | 90 | 1010.9 |